Valencia Aeropuerto, Spain

10:45 PM CET en Diciembre 18, 2018 (GMT +0100)
Manises

Tiempo Historia de LEVC - Diciembre, 2018

Change the Weather History Date:

Jueves, Diciembre 6, 2018

  Actual Average Record
Temperature  
Temperatura media 57 ° F -  
Temperatura máxima 70 ° F 59 ° F 77 ° F (2010)
Temperatura mínima 44 ° F 41 ° F 28 ° F (2017)
Degree Days  
Grados día de calefacción 8    
Growing Degree Days 7 (Base 50)    
Moisture  
Punto de rocío 48 ° F    
Average Humidity 78    
Maximum Humidity 100    
Minimum Humidity 33    
Precipitación  
Precipitación 0.00 pul 0.05 pul - ()
Presión al nivel del mar  
Presión al nivel del mar 30.29 pul    
Viento  
Velocidad del viento 4 mph ()    
Velocidad máxima del viento 8 mph    
Max Gust Speed -    
Visibilidad 6.7 Millas    
Eventos Niebla    
Averages and records for this station are not official NWS values.
T = Trace of Precipitation, MM = Missing Value Source: Averaged Metar Reports

Daily Weather History Graph

Daily Weather History Graph

Search for Another Location

Airport or City:

Astronomía

Dec. 06, 2018 Salida Puesta
Hora real 8:07 AM CET 5:37 PM CET
Crepúsculo civil 7:37 AM CET 6:07 PM CET
Crepúsculo náutico 7:04 AM CET 6:41 PM CET
Crepúsculo astronómico 6:31 AM CET 7:13 PM CET
Luna 7:00 AM CET (12/6) 5:23 PM CET (12/6)
Horas de luz 10h 30m
Horas de luz
9h 30m
Creciente menguante, 1% of the Moon is Illuminated
Dic 6
Creciente menguante
Dic 7
Nueva
Dic 15
Cuarto creciente
Dic 22
Luna llena
Dic 29
Cuarto menguante

Hourly Weather History & Observations

Hora (CET) Temp. Vientos helados Punto de rocío Humedad Presión Visibilidad Wind Dir Velocidad del viento Velocidad de ráfagas Precip Eventos Condiciones
12:00 AM 50 ° F - 50 ° F 99% 30.25 pul - Oeste 2.3 mph - -  
12:00 AM 50.0 ° F - 50.0 ° F 100% 30.24 pul 1.9 mi Variable 1.2 mph - N/A   Nubes dispersas
12:30 AM 48.2 ° F - 48.2 ° F 100% 30.24 pul 1.9 mi Variable 2.3 mph - N/A   Nubes dispersas
1:00 AM 48 ° F - 48 ° F 100% 30.24 pul 2 mi OSO 6.9 mph - -   Neblina
1:00 AM 48.2 ° F - 48.2 ° F 100% 30.21 pul 1.6 mi OSO 5.8 mph - N/A   Nubes dispersas
1:30 AM 50.0 ° F - 50.0 ° F 100% 30.24 pul 1.6 mi Norte 5.8 mph - N/A   Nubes dispersas
2:00 AM 47 ° F - 47 ° F 99% 30.26 pul - NO 4.6 mph - -   Precipitación desconocida
2:00 AM 48.2 ° F - 48.2 ° F 100% 30.24 pul 1.9 mi ONO 4.6 mph - N/A   Nubes dispersas
2:30 AM 48.2 ° F - 46.4 ° F 93% 30.24 pul 3.7 mi NNO 3.5 mph - N/A   Parcialmente nublado
3:00 AM 47 ° F - 46 ° F 97% 30.27 pul - Oeste 2.3 mph - -   Precipitación desconocida
3:00 AM 48.2 ° F - 46.4 ° F 93% 30.24 pul 4.3 mi Variable 1.2 mph - N/A   Parcialmente nublado
3:30 AM 46.4 ° F 43.5 ° F 46.4 ° F 100% 30.27 pul 4.3 mi ONO 5.8 mph - N/A   Parcialmente nublado
4:00 AM 45 ° F - 45 ° F 98% 30.29 pul 9 mi Oeste 4.6 mph - -   Despejado
4:00 AM 46.4 ° F 45.2 ° F 44.6 ° F 93% 30.27 pul - Oeste 3.5 mph - N/A   Despejado
4:30 AM 46.4 ° F 44.3 ° F 44.6 ° F 93% 30.27 pul - Oeste 4.6 mph - N/A   Despejado
5:00 AM 45 ° F - 44 ° F 95% 30.28 pul - Oeste 4.6 mph - -   Precipitación desconocida
5:00 AM 46.4 ° F 44.3 ° F 44.6 ° F 93% 30.27 pul - Oeste 4.6 mph - N/A   Despejado
5:30 AM 46.4 ° F 45.2 ° F 44.6 ° F 93% 30.27 pul - Oeste 3.5 mph - N/A   Despejado
6:00 AM 45 ° F - 44 ° F 93% 30.28 pul - OSO 2.3 mph - -   Precipitación desconocida
6:00 AM 46.4 ° F - 44.6 ° F 93% 30.27 pul - Variable 2.3 mph - N/A   Despejado
6:30 AM 46.4 ° F 42.9 ° F 44.6 ° F 93% 30.27 pul - Oeste 6.9 mph - N/A   Despejado
7:00 AM 44.6 ° F 41.4 ° F 42.8 ° F 93% 30.27 pul - Oeste 5.8 mph - N/A   Despejado
7:30 AM 46.4 ° F 43.5 ° F 44.6 ° F 93% 30.27 pul - Oeste 5.8 mph - N/A   Despejado
8:00 AM 46.4 ° F 42.9 ° F 42.8 ° F 87% 30.27 pul - ONO 6.9 mph - N/A   Despejado
8:30 AM 46.4 ° F 42.9 ° F 42.8 ° F 87% 30.30 pul - NO 6.9 mph - N/A   Despejado
9:00 AM 48 ° F - 44 ° F 81% 30.32 pul - ONO 5.8 mph - -  
9:00 AM 50.0 ° F - 42.8 ° F 76% 30.30 pul 1.9 mi Oeste 5.8 mph - N/A Niebla Bancos de niebla
9:30 AM 51.8 ° F - 46.4 ° F 82% 30.30 pul - Oeste 6.9 mph - N/A   Despejado
10:00 AM 55 ° F - 48 ° F 69% 30.32 pul 22 mi Oeste 6.9 mph - -   Despejado
10:00 AM 55.4 ° F - 48.2 ° F 77% 30.30 pul - Oeste 6.9 mph - N/A   Despejado
10:30 AM 59.0 ° F - 48.2 ° F 67% 30.33 pul - Variable 2.3 mph - N/A   Despejado
11:00 AM 62 ° F - 48 ° F 51% 30.34 pul - OSO 3.5 mph - -  
11:00 AM 62.6 ° F - 50.0 ° F 63% 30.33 pul - Oeste 5.8 mph - N/A   Despejado
11:30 AM 64.4 ° F - 50.0 ° F 59% 30.33 pul - Variable 2.3 mph - N/A   Despejado
12:00 PM 68 ° F - 49 ° F 40% 30.33 pul - Sin viento Sin viento - -  
12:00 PM 68.0 ° F - 48.2 ° F 49% 30.33 pul - Sin viento Sin viento - N/A   Despejado
12:30 PM 69.8 ° F - 48.2 ° F 46% 30.30 pul - ENE 1.2 mph - N/A   Despejado
1:00 PM 70 ° F - 47 ° F 33% 30.31 pul 19 mi Sin viento Sin viento - -   Nubes dispersas
1:00 PM 69.8 ° F - 48.2 ° F 46% 30.30 pul - Variable 1.2 mph - N/A   Despejado
1:30 PM 68.0 ° F - 50.0 ° F 52% 30.30 pul - Este 5.8 mph - N/A   Despejado
2:00 PM 69 ° F - 48 ° F 36% 30.30 pul - Este 6.9 mph - -  
2:00 PM 68.0 ° F - 50.0 ° F 52% 30.30 pul - Este 5.8 mph - N/A   Despejado
2:30 PM 69.8 ° F - 48.2 ° F 46% 30.30 pul - Este 5.8 mph - N/A   Despejado
3:00 PM 69 ° F - 49 ° F 38% 30.30 pul - Este 8.1 mph - -  
3:00 PM 68.0 ° F - 51.8 ° F 56% 30.30 pul - Este 6.9 mph - N/A   Despejado
3:30 PM 68.0 ° F - 50.0 ° F 52% 30.30 pul - Este 6.9 mph - N/A   Despejado
4:00 PM 67 ° F - 49 ° F 41% 30.28 pul 19 mi SE 6.9 mph - -   Despejado
4:00 PM 68.0 ° F - 50.0 ° F 52% 30.27 pul - SE 5.8 mph - N/A   Despejado
4:30 PM 64.4 ° F - 51.8 ° F 64% 30.27 pul - ESE 6.9 mph - N/A   Despejado
5:00 PM 62.6 ° F - 53.6 ° F 72% 30.27 pul - SE 4.6 mph - N/A   Despejado
5:30 PM 60.8 ° F - 53.6 ° F 77% 30.27 pul - ESE 4.6 mph - N/A   Despejado
6:00 PM 60.8 ° F - 51.8 ° F 72% 30.30 pul - Este 3.5 mph - N/A   Despejado
6:30 PM 59.0 ° F - 51.8 ° F 77% 30.30 pul - Variable 2.3 mph - N/A   Despejado
7:00 PM 58 ° F - 52 ° F 73% 30.32 pul 16 mi ENE 2.3 mph - -   Despejado
7:00 PM 59.0 ° F - 53.6 ° F 82% 30.30 pul - Variable 2.3 mph - N/A   Despejado
7:30 PM 57.2 ° F - 51.8 ° F 82% 30.30 pul - Norte 3.5 mph - N/A   Despejado
8:00 PM 52 ° F - 49 ° F 85% 30.33 pul - NO 3.5 mph - -  
8:00 PM 51.8 ° F - 50.0 ° F 94% 30.30 pul - NO 2.3 mph - N/A   Despejado
8:30 PM 51.8 ° F - 50.0 ° F 94% 30.33 pul - Oeste 4.6 mph - N/A   Despejado
9:00 PM 51 ° F - 49 ° F 92% 30.33 pul - NO 5.8 mph - -  
9:00 PM 51.8 ° F - 50.0 ° F 94% 30.33 pul - NO 5.8 mph - N/A   Despejado
9:30 PM 53.6 ° F - 50.0 ° F 88% 30.33 pul - NO 5.8 mph - N/A   Despejado
10:00 PM 52 ° F - 50 ° F 89% 30.34 pul 12 mi NO 6.9 mph - -   Despejado
10:30 PM 51.8 ° F - 50.0 ° F 94% 30.33 pul - Oeste 3.5 mph - N/A   Despejado
11:00 PM 49 ° F - 47 ° F 90% 30.35 pul - ONO 3.5 mph - -  
11:00 PM 50.0 ° F - 48.2 ° F 94% 30.33 pul - ONO 3.5 mph - N/A   Despejado
11:30 PM 50.0 ° F - 48.2 ° F 94% 30.33 pul - NO 3.5 mph - N/A   Despejado